TimeEDT,TemperatureF,Dew PointF,Humidity,Sea Level PressureIn,VisibilityMPH,Wind Direction,Wind SpeedMPH,Gust SpeedMPH,PrecipitationIn,Events,Conditions,WindDirDegrees,DateUTC
12:54 AM,60.1,57.9,93,29.73,4.0,Calm,Calm,-,0.02,Rain,Light Rain,0,2013-05-11 04:54:00
1:14 AM,60.8,57.2,88,29.72,3.0,Variable,3.5,-,0.04,Rain,Rain,0,2013-05-11 05:14:00
1:29 AM,60.8,57.2,88,29.71,4.0,Calm,Calm,-,0.07,Rain,Light Rain,0,2013-05-11 05:29:00
1:50 AM,60.8,57.2,88,29.70,2.5,South,3.5,-,0.13,Rain,Heavy Rain,170,2013-05-11 05:50:00
1:54 AM,61.0,57.9,90,29.69,2.5,SSW,4.6,-,0.15,Rain,Heavy Rain,200,2013-05-11 05:54:00
2:02 AM,60.8,57.2,88,29.69,5.0,SSW,5.8,-,0.01,Rain,Light Rain,200,2013-05-11 06:02:00
2:38 AM,60.8,57.2,88,29.68,9.0,South,10.4,-,0.02,Rain,Light Rain,190,2013-05-11 06:38:00
2:45 AM,60.8,57.2,88,29.68,9.0,South,9.2,-,0.02,Rain,Light Rain,190,2013-05-11 06:45:00
2:54 AM,61.0,57.9,90,29.68,10.0,South,12.7,-,0.02,Rain,Light Rain,190,2013-05-11 06:54:00
3:54 AM,60.1,57.0,90,29.67,10.0,SSW,6.9,-,0.01,,Overcast,200,2013-05-11 07:54:00
4:54 AM,60.1,57.0,90,29.66,10.0,SSW,5.8,-,N/A,,Overcast,200,2013-05-11 08:54:00
5:08 AM,60.8,57.2,88,29.67,10.0,South,5.8,-,N/A,,Overcast,190,2013-05-11 09:08:00
5:34 AM,60.8,57.2,88,29.67,10.0,South,6.9,-,N/A,,Overcast,190,2013-05-11 09:34:00
5:54 AM,60.1,57.9,93,29.67,10.0,South,5.8,-,N/A,,Overcast,180,2013-05-11 09:54:00
6:41 AM,60.8,57.2,88,29.67,10.0,South,4.6,-,N/A,,Overcast,180,2013-05-11 10:41:00
6:54 AM,61.0,57.9,90,29.67,10.0,WSW,4.6,-,N/A,,Overcast,240,2013-05-11 10:54:00
7:42 AM,60.8,57.2,88,29.68,1.8,West,5.8,-,0.02,Rain,Rain,260,2013-05-11 11:42:00
7:51 AM,57.2,53.6,88,29.69,1.8,WNW,16.1,21.9,0.04,Rain,Rain,300,2013-05-11 11:51:00
7:52 AM,57.2,53.6,88,29.69,2.0,WNW,15.0,21.9,0.04,Rain,Light Rain,300,2013-05-11 11:52:00
7:54 AM,55.9,53.1,90,29.69,2.0,WNW,17.3,21.9,0.04,Rain,Light Rain,300,2013-05-11 11:54:00
8:40 AM,51.8,50.0,94,29.70,3.0,WNW,13.8,23.0,0.08,Rain,Light Rain,290,2013-05-11 12:40:00
8:54 AM,52.0,48.9,89,29.71,6.0,West,11.5,20.7,0.08,Rain,Light Rain,280,2013-05-11 12:54:00
9:01 AM,51.8,48.2,88,29.70,5.0,WNW,12.7,20.7,0.00,Rain,Light Rain,290,2013-05-11 13:01:00
9:54 AM,50.0,48.0,93,29.73,6.0,WNW,10.4,18.4,0.01,,Overcast,290,2013-05-11 13:54:00
10:54 AM,48.9,46.0,90,29.75,10.0,West,15.0,21.9,N/A,,Overcast,280,2013-05-11 14:54:00
11:54 AM,48.9,45.0,86,29.76,10.0,West,10.4,-,N/A,,Overcast,270,2013-05-11 15:54:00
12:54 PM,50.0,45.0,83,29.75,10.0,West,10.4,16.1,N/A,,Overcast,270,2013-05-11 16:54:00
1:31 PM,50.0,44.6,82,29.76,10.0,West,11.5,-,N/A,,Overcast,280,2013-05-11 17:31:00
1:54 PM,48.9,43.0,80,29.76,10.0,WNW,10.4,-,N/A,,Overcast,290,2013-05-11 17:54:00
2:40 PM,51.8,42.8,71,29.76,10.0,West,10.4,-,N/A,,Overcast,280,2013-05-11 18:40:00
2:54 PM,51.1,44.1,77,29.76,10.0,NW,10.4,-,N/A,,Overcast,310,2013-05-11 18:54:00
3:54 PM,52.0,45.0,77,29.75,10.0,WNW,9.2,-,N/A,,Overcast,300,2013-05-11 19:54:00
4:54 PM,52.0,44.1,74,29.75,10.0,NW,10.4,-,N/A,,Overcast,310,2013-05-11 20:54:00
5:54 PM,53.1,45.0,74,29.75,10.0,WNW,8.1,-,N/A,,Overcast,300,2013-05-11 21:54:00
6:44 PM,53.6,44.6,72,29.75,10.0,North,4.6,-,N/A,,Scattered Clouds,350,2013-05-11 22:44:00
6:54 PM,53.1,45.0,74,29.75,10.0,WNW,6.9,-,N/A,,Partly Cloudy,300,2013-05-11 22:54:00
7:54 PM,51.1,45.0,80,29.76,10.0,NW,5.8,-,N/A,,Clear,320,2013-05-11 23:54:00
8:54 PM,46.0,43.0,89,29.77,8.0,Calm,Calm,-,N/A,,Clear,0,2013-05-12 00:54:00
9:54 PM,46.9,44.1,90,29.77,9.0,Calm,Calm,-,N/A,,Scattered Clouds,0,2013-05-12 01:54:00
10:54 PM,48.9,45.0,86,29.75,10.0,Calm,Calm,-,N/A,,Overcast,0,2013-05-12 02:54:00
11:54 PM,48.9,46.0,90,29.74,8.0,Calm,Calm,-,N/A,,Overcast,0,2013-05-12 03:54:00